GW6605 Weather Reports


time (UTC)temp
F
wind
direction
speed
knots
gust
knots
rain 1hr
in
rain 24hr
in
rain mn
in
humidity
%
barometer
mb
20260504151005 59 290 3.5 5.2 0.00 0.00 0.00 44 1007.6
20260504150510 59 234 2.6 5.2 0.00 0.00 0.00 43 1007.6
20260504141004 57 266 0.0 7.8 0.00 0.00 0.00 43 1008.1
20260504140509 57 217 2.6 7.8 0.00 0.00 0.00 41 1008.1
20260504130504 57 231 0.9 5.2 0.00 0.00 0.00 43 1008.5
20260504110504 44 288 0.0 1.7 0.00 0.00 0.00 75 1008.9
20260504100504 45 96 0.0 1.7 0.00 0.00 0.00 76 1008.8
20260504081537 43 79 0.0 1.7 0.00 0.00 0.00 79 1008.8
20260504081008 43 195 0.9 2.6 0.00 0.00 0.00 78 1008.8
20260504080508 42 77 0.9 2.6 0.00 0.00 0.00 79 1008.9
20260504050504 36 109 0.0 1.7 0.00 0.00 0.00 76 1009.5
20260504050011 36 68 0.0 1.7 0.00 0.00 0.00 76 1009.5
20260504045501 36 312 0.0 1.7 0.00 0.00 0.00 75 1009.6
20260504045003 36 328 0.0 1.7 0.00 0.00 0.00 77 1009.7
20260504044505 36 253 0.9 1.7 0.00 0.00 0.00 76 1009.6
20260504044003 36 153 0.0 1.7 0.00 0.00 0.00 76 1009.7
20260504043503 36 154 0.0 1.7 0.00 0.00 0.00 75 1009.7
20260504043017 36 176 0.0 1.7 0.00 0.00 0.00 75 1009.7
20260504042504 36 156 0.0 1.7 0.00 0.00 0.00 76 1009.7
20260504042005 35 160 0.0 1.7 0.00 0.00 0.00 75 1009.7
20260504041509 35 160 0.0 1.7 0.00 0.00 0.00 76 1009.6
20260504041003 35 123 0.0 1.7 0.00 0.00 0.00 76 1009.5
20260504040505 35 113 0.0 1.7 0.00 0.00 0.00 77 1009.4
20260504040013 35 115 0.0 1.7 0.00 0.00 0.00 77 1009.5
20260504035503 35 86 0.0 1.7 0.00 0.00 0.00 77 1009.6
20260504035004 34 89 0.0 1.7 0.00 0.00 0.00 77 1009.5
20260504034505 34 91 0.0 1.7 0.00 0.00 0.00 76 1009.5
20260504034004 34 91 0.0 1.7 0.00 0.00 0.00 76 1009.5
20260504033503 34 91 0.0 1.7 0.00 0.00 0.00 76 1009.4
20260504033007 34 91 0.0 1.7 0.00 0.00 0.00 76 1009.5
20260504032504 34 91 0.0 1.7 0.00 0.00 0.00 77 1009.5
20260504032006 34 91 0.0 1.7 0.00 0.00 0.00 77 1009.5
20260504031510 34 91 0.0 0.9 0.00 0.00 0.00 77 1009.4
20260504031004 34 91 0.0 0.0 0.00 0.00 0.00 76 1009.5
20260504030505 34 91 0.0 1.7 0.00 0.00 0.00 75 1009.5
20260504030021 34 91 0.0 1.7 0.00 0.00 0.00 74 1009.5
20260504025504 35 91 0.0 1.7 0.00 0.00 0.00 75 1009.5
20260504025004 35 117 0.0 1.7 0.00 0.00 0.00 74 1009.6
20260504024514 35 117 0.0 0.0 0.00 0.00 0.00 73 1009.5
20260504024003 35 117 0.0 1.7 0.00 0.00 0.00 72 1009.5
20260504023503 35 117 0.0 1.7 0.00 0.00 0.00 72 1009.5
20260504023005 35 117 0.0 1.7 0.00 0.00 0.00 71 1009.6
20260504022503 36 113 0.0 1.7 0.00 0.00 0.00 72 1009.6
20260504022005 36 113 0.0 1.7 0.00 0.00 0.00 70 1009.7
20260504021510 36 113 0.0 1.7 0.00 0.00 0.00 70 1009.6
20260504021003 37 114 0.0 1.7 0.00 0.00 0.00 70 1009.6
20260504020505 37 114 0.0 1.7 0.00 0.00 0.00 68 1009.6
20260504020014 37 114 0.0 1.7 0.00 0.00 0.00 66 1009.5
20260504015503 37 114 0.0 1.7 0.00 0.00 0.00 66 1009.6
20260504015006 38 114 0.0 1.7 0.00 0.00 0.00 66 1009.5
20260504014519 38 105 0.0 1.7 0.00 0.00 0.00 66 1009.4
20260504014003 38 103 0.0 1.7 0.00 0.00 0.00 67 1009.4
20260504013504 39 102 0.0 1.7 0.00 0.00 0.00 66 1009.4
20260504013031 39 102 0.0 1.7 0.00 0.00 0.00 66 1009.3
20260504012504 39 102 0.0 1.7 0.00 0.00 0.00 63 1009.2
20260504012003 40 91 0.9 1.7 0.00 0.00 0.00 62 1009.2
20260504011503 40 48 0.0 1.7 0.00 0.00 0.00 63 1009.0
20260504011001 41 48 0.0 1.7 0.00 0.00 0.00 61 1008.9
20260504010503 41 47 0.0 0.0 0.00 0.00 0.00 58 1008.8
20260504010012 42 47 0.0 0.0 0.00 0.00 0.00 56 1008.8
20260504005505 42 47 0.0 0.0 0.00 0.00 0.00 56 1008.7
20260504005011 43 47 0.0 1.7 0.00 0.00 0.00 56 1008.5
20260504004514 43 47 0.0 1.7 0.00 0.00 0.00 54 1008.5
20260504004004 44 47 0.0 1.7 0.00 0.00 0.00 51 1008.5
20260504003504 44 47 0.0 0.9 0.00 0.00 0.00 50 1008.5
20260504003016 45 47 0.0 1.7 0.00 0.00 0.00 49 1008.4
20260504002510 45 47 0.0 1.7 0.00 0.00 0.00 47 1008.3
20260504002006 46 47 0.0 1.7 0.00 0.00 0.00 46 1008.3
20260504001519 47 48 0.0 1.7 0.00 0.00 0.00 45 1008.2
20260504001005 47 61 0.0 1.7 0.00 0.00 0.00 43 1008.1
20260504000504 48 335 0.0 1.7 0.00 0.00 0.00 42 1008.1
20260504000008 49 335 0.0 1.7 0.00 0.00 0.00 41 1008.1
20260503235503 49 335 0.0 1.7 0.00 0.00 0.00 38 1008.0
20260503235004 49 319 0.0 1.7 0.00 0.00 0.00 36 1007.9
20260503234512 50 294 0.0 2.6 0.00 0.00 0.00 37 1007.8
20260503234006 50 304 0.9 2.6 0.00 0.00 0.00 37 1007.8
20260503233503 50 330 0.0 3.5 0.00 0.00 0.00 35 1007.7
20260503233021 50 360 1.7 5.2 0.00 0.00 0.00 36 1007.7
20260503232509 50 292 1.7 7.8 0.00 0.00 0.00 35 1007.7
20260503232010 50 85 3.5 7.8 0.00 0.00 0.00 34 1007.6
20260503231520 51 286 1.7 7.8 0.00 0.00 0.00 34 1007.5
20260503231004 51 9 2.6 7.8 0.00 0.00 0.00 34 1007.6
20260503230509 51 338 0.9 6.1 0.00 0.00 0.00 35 1007.7
20260503230019 51 311 0.9 7.8 0.00 0.00 0.00 35 1007.6
20260503225506 51 293 1.7 7.8 0.00 0.00 0.00 34 1007.6
20260503225004 51 282 2.6 7.0 0.00 0.00 0.00 34 1007.6
20260503224513 52 25 1.7 8.7 0.00 0.00 0.00 34 1007.6
20260503224004 51 298 3.5 8.7 0.00 0.00 0.00 34 1007.6
20260503223502 51 28 1.7 6.1 0.00 0.00 0.00 37 1007.6
20260503223016 51 349 0.0 1.7 0.00 0.00 0.00 40 1007.6
20260503222504 51 320 0.9 3.5 0.00 0.00 0.00 38 1007.6
20260503222007 51 14 0.9 4.3 0.00 0.00 0.00 38 1007.6
20260503221521 51 359 1.7 7.8 0.00 0.00 0.00 38 1007.6
20260503221011 51 20 1.7 7.8 0.00 0.00 0.00 37 1007.6
20260503220503 50 309 4.3 13.0 0.00 0.00 0.00 37 1007.7
20260503220007 50 281 2.6 13.0 0.00 0.00 0.00 38 1007.6
20260503215503 51 1 0.9 7.0 0.00 0.00 0.00 38 1007.7
20260503215003 51 238 2.6 10.4 0.00 0.00 0.00 37 1007.5
20260503214508 51 321 1.7 10.4 0.00 0.00 0.00 37 1007.6
20260503214004 51 296 3.5 7.8 0.00 0.00 0.00 38 1007.5
20260503213505 50 308 2.6 7.8 0.00 0.00 0.00 37 1007.5
20260503213014 50 111 3.5 9.6 0.00 0.00 0.00 39 1007.6
20260503212507 50 336 4.3 12.2 0.00 0.00 0.00 37 1007.7
20260503212004 50 276 3.5 12.2 0.00 0.00 0.00 38 1007.6
20260503211517 51 355 3.5 11.3 0.00 0.00 0.00 38 1007.6
20260503211007 51 81 0.9 5.2 0.00 0.00 0.00 38 1007.6
20260503210507 51 33 1.7 8.7 0.00 0.00 0.00 37 1007.7
20260503210023 51 46 2.6 9.6 0.00 0.00 0.00 38 1007.5
20260503205503 51 315 2.6 11.3 0.00 0.00 0.00 37 1007.6
20260503205003 51 283 3.5 11.3 0.00 0.00 0.00 39 1007.5
20260503204508 50 6 2.6 8.7 0.00 0.00 0.00 38 1007.5
20260503204004 50 35 1.7 8.7 0.00 0.00 0.00 39 1007.5
20260503203506 50 257 3.5 8.7 0.00 0.00 0.00 40 1007.5
20260503203032 50 265 0.9 6.1 0.00 0.00 0.00 40 1007.5
20260503202504 49 21 2.6 7.8 0.00 0.00 0.00 40 1007.5
20260503202006 49 343 2.6 8.7 0.00 0.00 0.00 39 1007.5
20260503201518 49 283 1.7 8.7 0.00 0.00 0.00 39 1007.5
20260503201009 49 300 2.6 7.0 0.00 0.00 0.00 39 1007.5
20260503200508 49 340 2.6 9.6 0.00 0.00 0.00 40 1007.4
20260503200023 49 113 2.6 9.6 0.00 0.00 0.00 38 1007.5
20260503195509 49 11 3.5 13.0 0.00 0.00 0.00 38 1007.6
20260503195009 49 314 4.3 13.0 0.00 0.00 0.00 38 1007.9
20260503194536 49 354 2.6 11.3 0.00 0.00 0.00 40 1007.7
20260503194003 49 35 4.3 14.8 0.00 0.00 0.00 39 1007.8
20260503193505 49 17 4.3 14.8 0.00 0.00 0.00 38 1007.9
20260503193009 49 295 3.5 9.6 0.00 0.00 0.00 39 1007.9
20260503192504 50 21 4.3 9.6 0.00 0.00 0.00 38 1007.7
20260503192004 49 345 2.6 8.7 0.00 0.00 0.00 38 1007.9
20260503191516 49 53 2.6 8.7 0.00 0.00 0.00 38 1008.1
20260503191004 49 48 4.3 7.8 0.00 0.00 0.00 38 1008.1
20260503190508 49 360 3.5 8.7 0.00 0.00 0.00 39 1008.1
20260503190034 49 3 3.5 8.7 0.00 0.00 0.00 39 1008.1
20260503185511 49 311 3.5 8.7 0.00 0.00 0.00 38 1008.0
20260503185008 49 330 2.6 8.7 0.00 0.00 0.00 39 1008.1
20260503184526 49 76 2.6 8.7 0.00 0.00 0.00 39 1008.1
20260503184009 49 319 2.6 9.6 0.00 0.00 0.00 39 1008.0
20260503183508 49 297 3.5 11.3 0.00 0.00 0.00 39 1008.0
20260503183009 49 356 4.3 11.3 0.00 0.00 0.00 37 1008.0
20260503182503 49 336 3.5 8.7 0.00 0.00 0.00 39 1008.0
20260503182003 49 26 3.5 7.8 0.00 0.00 0.00 39 1008.0
20260503181514 49 78 2.6 9.6 0.00 0.00 0.00 40 1007.9
20260503181004 49 1 3.5 9.6 0.00 0.00 0.00 38 1007.9
20260503180507 49 359 2.6 7.8 0.00 0.00 0.00 39 1007.7
20260503180016 49 354 3.5 14.8 0.00 0.00 0.00 40 1007.7
20260503175508 49 70 3.5 14.8 0.00 0.00 0.00 39 1007.6
20260503175007 49 288 3.5 10.4 0.00 0.00 0.00 39 1007.7
20260503174521 50 355 4.3 15.6 0.00 0.00 0.00 39 1007.6
20260503174007 49 359 7.0 15.6 0.00 0.00 0.00 38 1007.6
20260503173027 50 1 6.1 13.9 0.00 0.00 0.00 37 1007.7
20260503172514 50 212 5.2 11.3 0.00 0.00 0.00 35 1007.6
20260503172011 50 18 1.7 11.3 0.00 0.00 0.00 38 1007.6
20260503171510 50 358 3.5 14.8 0.00 0.00 0.00 37 1007.4
20260503171004 50 273 5.2 14.8 0.00 0.00 0.00 37 1007.3
20260503170504 49 30 3.5 11.3 0.00 0.00 0.00 37 1007.5